Home   Weather   Verona   Past weeks

Flag for Italy Past Weather in Verona, Italy — Yesterday and Last 2 Weeks

45 °F


Feels Like: 45 °F
Forecast: 44 / 65 °F
Wind: 1 mph from North

Location: Verona / Villafranca

Current Time: Oct 29, 2016 at 1:52:07 AM

Latest Report: Oct 29, 2016 at 12:50 AM

Visibility: 10 mi

Pressure: 30.45 "Hg

Humidity: 93%

Dew Point: 43 °F

Location of VeronaLocation

Past Weather in Verona — Graph


Verona Temperature Yesterday

Maximum temperature yesterday: 64 °F (at 2:50 PM)
Minimum temperature yesterday: 46 °F (at 11:50 PM)
Average temperature yesterday: 55 °F

High & Low Weather Summary for the Past Weeks

High68 °F (Oct 16, 2:50 PM)100% (Oct 14, 2:20 AM)30.51 "Hg (Oct 14, 2:20 AM)
Low41 °F (Oct 21, 4:50 AM)49% (Oct 27, 2:20 PM)29.83 "Hg (Oct 14, 9:50 PM)
Average56 °F89%30.12 "Hg
* Reported Oct 14 12:20 AM — Oct 29 12:20 AM, Verona, Weather by CustomWeather, © 2016

Note: Actual official high and low records may vary slightly from our data, if they occured in-between our weather recording intervals... More about our weather records


Verona Weather History for the Previous 24 Hours

Scroll right to see more
Time TempWeatherWind HumidityBarometerVisibility
12:20 AM
Sat, Oct 29
46 °FClear.2 mph93%30.45 "Hg10 mi
11:50 PM
Fri, Oct 28
46 °FClear.3 mph93%30.45 "Hg10 mi
11:20 PM48 °FClear.3 mph94%30.45 "Hg10 mi
10:50 PM48 °FClear.3 mph94%30.45 "Hg10 mi
10:20 PM48 °FClear.5 mph94%30.45 "Hg10 mi
9:50 PM50 °FClear.3 mph88%30.45 "Hg10 mi
9:20 PM52 °FClear.3 mph88%30.45 "Hg10 mi
8:50 PM52 °FClear.3 mph88%30.45 "Hg10 mi
8:20 PM50 °FClear.5 mph94%30.45 "Hg10 mi
7:50 PM52 °FClear.2 mph88%30.45 "Hg10 mi
7:20 PM55 °FClear.2 mph77%30.45 "Hg10 mi
6:50 PM57 °FClear.3 mph72%30.45 "Hg10 mi
6:20 PM59 °FClear.3 mph68%30.45 "Hg10 mi
5:50 PM61 °FSunny.6 mph63%30.42 "Hg10 mi
5:20 PM63 °FPassing clouds.5 mph59%30.45 "HgN/A
4:50 PM63 °FSunny.6 mph56%30.45 "Hg10 mi
4:20 PM63 °FSunny.7 mph56%30.45 "Hg10 mi
3:50 PM63 °FSunny.6 mph59%30.45 "Hg10 mi
3:20 PM63 °FPassing clouds.6 mph59%30.45 "HgN/A
2:50 PM64 °FSunny.2 mph56%30.48 "Hg10 mi
2:20 PM63 °FPassing clouds.5 mph59%30.48 "HgN/A
1:50 PM63 °FPassing clouds.3 mph59%30.48 "HgN/A
1:20 PM63 °FScattered clouds.3 mph59%30.51 "HgN/A
12:50 PM63 °FPassing clouds.3 mph59%30.51 "HgN/A
12:20 PM61 °FPassing clouds.3 mph63%30.51 "HgN/A
11:50 AM61 °FSunny.2 mph59%30.51 "Hg10 mi
11:20 AM59 °FPassing clouds.5 mph68%30.51 "HgN/A
10:50 AM59 °FSunny.2 mph68%30.51 "Hg10 mi
10:20 AM59 °FSunny.2 mph72%30.51 "Hg10 mi
9:50 AM55 °FScattered clouds.3 mph82%30.51 "HgN/A
9:20 AM55 °FScattered clouds.2 mph82%30.51 "HgN/A
8:50 AM54 °FPartly sunny.3 mph88%30.51 "HgN/A
8:20 AM52 °FPartly sunny.2 mph94%30.48 "HgN/A
7:50 AM54 °FPartly sunny.3 mph88%30.48 "HgN/A
7:20 AM52 °FPassing clouds.3 mph88%30.48 "HgN/A
6:50 AM52 °FPassing clouds.2 mph94%30.48 "HgN/A
6:20 AM52 °FPassing clouds.1 mph88%30.48 "HgN/A
5:50 AM54 °FPassing clouds.2 mph88%30.45 "HgN/A
5:20 AM54 °FPassing clouds.2 mph82%30.45 "HgN/A
4:50 AM54 °FPassing clouds.3 mph88%30.45 "HgN/A
4:20 AM54 °FPassing clouds.2 mph88%30.45 "HgN/A
3:50 AM54 °FPassing clouds.3 mph88%30.45 "HgN/A
3:20 AM54 °FPassing clouds.3 mph88%30.45 "HgN/A
2:50 AM52 °FPassing clouds.3 mph94%30.45 "HgN/A
1:50 AM52 °FClear.5 mph88%30.45 "Hg10 mi
1:20 AM50 °FClear.5 mph88%30.45 "Hg10 mi
Weather by CustomWeather, © 2016

See weather overviewHow to use our weather pages